Weather in Peski

Russia / Kurgan Oblast     54°37′15″N   63°15′31″E
temp.,
°C
wind,
m/s
gust,
m/s
humid.,
%
clouds,
%
prec.,
mm/h
press.,
hPa
HPBL,
m
17 june, thu
thu1723:00+20ne226555 0.0 101312
02:00+20ese3356100 0.0 101122
05:00+20nnw3355100 0.1 101156
08:00+25s114469 0.0 1009157
11:00+30s4532100 0.0 1007603
14:00+32ssw582733 0.0 10052322
17:00+34wsw713248 0.0 10024301
20:00+20nnw71479100 0.0 1004482
18 june, fri
fri1823:00+17nw2591100 3.9 1005235
02:00+16nw489699 0.1 1005339
05:00+15nnw81480100 0.4 1006488
08:00+15n9127297 0.1 1009808
11:00+17nne795270 0.3 10111699
14:00+19n9114038 0.8 10132418
17:00+18nnw9113920 0.8 10142542
20:00+16n694616 0.0 1016671
19 june, sat
sat1923:00+11nw496274 0.0 1018155
02:00+10nw486097 0.0 1019142
05:00+10wnw49675 0.0 1019159
08:00+15nw6104973 0.0 1019518
11:00+18nw8938100 0.0 10192199
14:00+13wnw5972100 0.1 1018650
17:00+15wnw796998 0.1 10171045
20:00+16wnw51075100 0.0 1015738
20 june, sun
sun2023:00+14w51191100 1.3 1013518
02:00+14w51195100 0.8 1012448
05:00+15wnw51193100 0.8 1010464
08:00+15wsw4997100 1.1 1009365
11:00+21nw9127294 2.1 10071142
14:00+23nw11145127 0.5 10072189
17:00+24nnw9154481 0.5 10082583
20:00+19nnw916390 0.0 1010800
21 june, mon
mon2123:00+16nnw9163190 0.0 1012807
02:00+12nnw615443 0.0 1013545
05:00+10nnw512543 0.0 1015448
08:00+13nnw8115787 0.0 1017922
11:00+15n685744 0.0 10181350
14:00+16nnw785599 0.1 10181614
17:00+19nnw79385 0.1 10172348
20:00+16nnw35536 0.0 101796